Regional Weather Roundup
Issued by NWS State College, PA

Home | Current Version | Previous Version | Text Only | Print | Product List | Glossary On
Versions: 1 2 3 4 5 6 7 8 9 10 11 12 13 14 15 16 17 18 19 20 21 22 23 24 25 26 27 28 29 30 31 32 33 34 35 36 37 38 39 40 41 42 43 44 45 46 47 48 49 50
000
ASUS41 KCTP 300410
RWRCTP

REGIONAL WEATHER ROUNDUP
NATIONAL WEATHER SERVICE STATE COLLEGE PA
1200 AM EDT SAT MAY 30 2015

Note: "fair" indicates few or no clouds below 12,000 feet with no
significant weather and/or obstructions to visibility.

* = STATION THAT DOES NOT REPORT PRECIPITATION /E.G. RAIN...SNOW...ETC/
    THUNDER OR FOG.

PAZ002>004-007>009-013>016-020>023-029>032-300500-
WESTERN PENNSYLVANIA

CITY           SKY/WX    TMP DP  RH WIND       PRES   REMARKS
ERIE           PTCLDY    73  63  70 S13       30.06S
MEADVILLE      LGT RAIN  69  63  81 VRB6      30.12S
FRANKLIN*      PTCLDY    66  61  82 S9        30.14F
NEW CASTLE     FAIR      70  67  90 CALM      30.12F
BEAVER COUNTY  NOT AVBL
BUTLER*        PTCLDY    68  64  88 S6        30.15F
PITTSBURGH INT MOCLDY    72  64  76 S5        30.12F
PITTSBURGH     CLEAR     69  62  78 S6        30.13F
INDIANA*       CLEAR     68  66  94 CALM      30.20S
LATROBE        CLEAR     66  66 100 CALM      30.17S
WASHINGTON CO* MOCLDY    64  63  94 CALM      30.16S
$$

PAZ004>006-010>012-017>019-024>028-033>037-041-042-045-046-049>053-300500-
CENTRAL PENNSYLVANIA

CITY           SKY/WX    TMP DP  RH WIND       PRES   REMARKS
BRADFORD       PTCLDY    67  63  87 VRB6      30.17F
DUBOIS         MOCLDY    69  64  84 S6        30.15F
CLEARFIELD     MOCLDY    67  65  93 N3        30.17F
JOHNSTOWN      CLEAR     67  62  84 S8        30.21S
ALTOONA        PTCLDY    71  63  75 S8        30.20F
STATE COLLEGE  MOCLDY    72  64  77 SW5       30.18S
WILLIAMSPORT   MOCLDY    76  64  66 S14G22    30.14F
SELINSGROVE    MOCLDY    75  66  73 SW3       30.18S
FT INDIANTOWN  PTCLDY    69  66  89 VRB1      30.20S
CAPITAL CITY   PTCLDY    74  66  76 S9        30.18S
HARRISBURG     PTCLDY    75  66  73 S6        30.18S
YORK           PTCLDY    73  66  78 VRB6      30.19F
$$

PAZ038>040-043-044-047-048-054-055-060>062-067>071-300500-
EASTERN PENNSYLVANIA

CITY           SKY/WX    TMP DP  RH WIND       PRES   REMARKS
SCRANTON       PTCLDY    72  61  68 CALM      30.19S
MOUNT POCONO   MOCLDY    66  59  78 SE7       30.24F
ALLENTOWN      MOCLDY    74  65  73 S8        30.21S
QUAKERTOWN*    MOCLDY    70  63  78 CALM      30.23S
READING        MOCLDY    73  66  78 SE8       30.20R
LANCASTER      PTCLDY    72  67  84 S8        30.20S
COATESVILLE    MOCLDY    68  66  94 SE3       30.23F
POTTSTOWN      MOCLDY    71  65  81 VRB3      30.23S
BLUE BELL      MOCLDY    72  63  73 S5        30.22S
DOYLESTOWN     PTCLDY    67  32  27 CALM      30.22S
WILLOW GROVE   NOT AVBL
NORTH PHILA    MOCLDY    71  60  68 S3        30.23F
PHILADELPHIA   MOCLDY    72  62  71 S8        30.22F
$$


USA.gov is the U.S. government's official web portal to all federal, state and local government web resources and services.